| time (UTC) | temp F | wind direction | speed knots | gust knots | rain 1hr in | rain 24hr in | rain mn in | humidity % | barometer mb |
| 20260902124604 | 59 | 112 | 0.0 | 0.0 | 0.00 | 0.00 | 0.00 | 86 | 1006.8 |
| 20260902124105 | 59 | 112 | 0.0 | 0.9 | 0.00 | 0.00 | 0.00 | 86 | 1006.8 |
| 20260902123604 | 59 | 112 | 0.0 | 0.0 | 0.00 | 0.00 | 0.00 | 86 | 1006.8 |
| 20260902123104 | 59 | 112 | 0.0 | 0.9 | 0.00 | 0.00 | 0.00 | 86 | 1006.8 |
| 20260902122605 | 59 | 45 | 0.0 | 0.9 | 0.00 | 0.00 | 0.00 | 86 | 1006.8 |
| 20260902122105 | 59 | 112 | 0.0 | 0.9 | 0.00 | 0.00 | 0.00 | 86 | 1006.8 |
| 20260902121104 | 59 | 112 | 0.0 | 0.9 | 0.00 | 0.00 | 0.00 | 86 | 1006.8 |
| 20260902120606 | 59 | 112 | 0.0 | 0.9 | 0.00 | 0.00 | 0.00 | 86 | 1006.8 |
| 20260902120104 | 59 | 112 | 0.0 | 0.0 | 0.00 | 0.00 | 0.00 | 86 | 1006.8 |
| 20260902115103 | 59 | 157 | 0.0 | 0.0 | 0.00 | 0.00 | 0.00 | 85 | 1006.8 |
| 20260902114604 | 59 | 180 | 0.0 | 0.0 | 0.00 | 0.00 | 0.00 | 85 | 1006.8 |
| 20260902114104 | 59 | 180 | 0.0 | 0.0 | 0.00 | 0.00 | 0.00 | 85 | 1006.8 |
| 20260902113604 | 59 | 180 | 0.0 | 0.0 | 0.00 | 0.00 | 0.00 | 85 | 1006.8 |
| 20260902113104 | 60 | 180 | 0.0 | 0.9 | 0.00 | 0.00 | 0.00 | 85 | 1006.8 |
| 20260902112604 | 60 | 180 | 0.9 | 1.7 | 0.00 | 0.00 | 0.00 | 84 | 1006.8 |
| 20260902112104 | 60 | 157 | 0.0 | 1.7 | 0.00 | 0.00 | 0.00 | 84 | 1006.8 |
| 20260902111604 | 60 | 135 | 0.0 | 0.0 | 0.00 | 0.00 | 0.00 | 84 | 1006.8 |
| 20260902111105 | 61 | 135 | 0.9 | 1.7 | 0.00 | 0.00 | 0.00 | 84 | 1006.8 |
| 20260902110604 | 61 | 90 | 0.0 | 0.0 | 0.00 | 0.00 | 0.00 | 84 | 1006.8 |
| 20260902110104 | 61 | 90 | 0.0 | 0.0 | 0.00 | 0.00 | 0.00 | 84 | 1006.9 |
| 20260902105604 | 61 | 112 | 0.9 | 1.7 | 0.00 | 0.00 | 0.00 | 84 | 1007.1 |
| 20260902105105 | 61 | 67 | 0.0 | 1.7 | 0.00 | 0.00 | 0.00 | 84 | 1007.1 |
| 20260902103605 | 61 | 67 | 0.0 | 1.7 | 0.00 | 0.00 | 0.00 | 85 | 1007.3 |
| 20260902103105 | 61 | 69 | 0.0 | 1.7 | 0.00 | 0.00 | 0.00 | 85 | 1007.1 |
| 20260902102604 | 61 | 69 | 0.0 | 1.7 | 0.00 | 0.00 | 0.00 | 85 | 1007.1 |
| 20260902102104 | 60 | 67 | 0.9 | 1.7 | 0.00 | 0.00 | 0.00 | 86 | 1007.1 |
| 20260902101604 | 60 | 67 | 0.9 | 1.7 | 0.00 | 0.00 | 0.00 | 86 | 1006.9 |
| 20260902101107 | 60 | 83 | 0.0 | 1.7 | 0.00 | 0.00 | 0.00 | 86 | 1007.1 |
| 20260902100604 | 60 | 86 | 0.0 | 1.7 | 0.00 | 0.00 | 0.00 | 86 | 1007.1 |
| 20260902100104 | 60 | 90 | 0.9 | 4.3 | 0.00 | 0.00 | 0.00 | 86 | 1007.1 |
| 20260902094605 | 59 | 90 | 0.0 | 0.0 | 0.00 | 0.00 | 0.00 | 86 | 1007.3 |
| 20260902094104 | 59 | 79 | 0.0 | 0.9 | 0.00 | 0.00 | 0.00 | 86 | 1007.1 |
| 20260902093603 | 59 | 130 | 0.0 | 0.9 | 0.00 | 0.00 | 0.00 | 86 | 1007.1 |
| 20260902093104 | 59 | 67 | 0.0 | 0.9 | 0.00 | 0.00 | 0.00 | 86 | 1007.1 |
| 20260902092604 | 59 | 135 | 0.0 | 0.9 | 0.00 | 0.00 | 0.00 | 86 | 1007.1 |
| 20260902092104 | 59 | 135 | 0.0 | 1.7 | 0.00 | 0.00 | 0.00 | 86 | 1007.1 |
| 20260902091603 | 59 | 135 | 0.0 | 0.0 | 0.00 | 0.00 | 0.00 | 86 | 1006.9 |
| 20260902091104 | 59 | 112 | 0.0 | 0.0 | 0.00 | 0.00 | 0.00 | 86 | 1007.1 |
| 20260902090604 | 59 | 112 | 0.0 | 0.9 | 0.00 | 0.00 | 0.00 | 86 | 1007.1 |
| 20260902090104 | 59 | 112 | 0.0 | 1.7 | 0.00 | 0.00 | 0.00 | 85 | 1007.1 |
| 20260902085604 | 59 | 112 | 0.0 | 0.0 | 0.00 | 0.00 | 0.00 | 85 | 1007.1 |
| 20260902085103 | 60 | 112 | 0.0 | 0.9 | 0.00 | 0.00 | 0.00 | 85 | 1007.1 |
| 20260902084104 | 60 | 112 | 0.0 | 1.7 | 0.00 | 0.00 | 0.00 | 85 | 1007.1 |
| 20260902083603 | 60 | 135 | 0.9 | 1.7 | 0.00 | 0.00 | 0.00 | 85 | 1007.3 |
| 20260902083104 | 60 | 67 | 0.0 | 0.9 | 0.00 | 0.00 | 0.00 | 85 | 1007.1 |
| 20260902082604 | 60 | 135 | 0.0 | 1.7 | 0.00 | 0.00 | 0.00 | 85 | 1007.1 |
| 20260902082104 | 60 | 135 | 0.9 | 1.7 | 0.00 | 0.00 | 0.00 | 85 | 1007.1 |
| 20260902081603 | 60 | 135 | 0.9 | 1.7 | 0.00 | 0.00 | 0.00 | 85 | 1007.1 |
| 20260902081105 | 60 | 112 | 0.9 | 1.7 | 0.00 | 0.00 | 0.00 | 85 | 1007.1 |
| 20260902080604 | 60 | 135 | 0.9 | 2.6 | 0.00 | 0.00 | 0.00 | 85 | 1007.1 |
| 20260902080104 | 60 | 112 | 0.0 | 0.0 | 0.00 | 0.00 | 0.00 | 84 | 1007.1 |
| 20260902075605 | 60 | 112 | 0.0 | 1.7 | 0.00 | 0.00 | 0.00 | 84 | 1007.1 |
| 20260902075104 | 60 | 135 | 0.0 | 0.9 | 0.00 | 0.00 | 0.00 | 84 | 1007.1 |
| 20260902074604 | 60 | 135 | 0.0 | 0.9 | 0.00 | 0.00 | 0.00 | 84 | 1007.1 |
| 20260902073103 | 60 | 180 | 0.0 | 1.7 | 0.00 | 0.00 | 0.00 | 83 | 1007.1 |
| 20260902072604 | 60 | 135 | 0.0 | 0.0 | 0.00 | 0.00 | 0.00 | 83 | 1006.8 |
| 20260902072104 | 60 | 225 | 0.0 | 0.0 | 0.00 | 0.00 | 0.00 | 82 | 1007.1 |
| 20260902071603 | 60 | 225 | 0.0 | 0.0 | 0.00 | 0.00 | 0.00 | 81 | 1007.1 |
| 20260902071105 | 60 | 225 | 0.0 | 0.0 | 0.00 | 0.00 | 0.00 | 81 | 1006.9 |
| 20260902070605 | 60 | 225 | 0.0 | 0.0 | 0.00 | 0.00 | 0.00 | 80 | 1006.9 |
| 20260902070104 | 60 | 225 | 0.0 | 0.0 | 0.00 | 0.00 | 0.00 | 80 | 1007.1 |
| 20260902065604 | 61 | 225 | 0.0 | 0.0 | 0.00 | 0.00 | 0.00 | 79 | 1007.1 |
| 20260902065104 | 61 | 225 | 0.0 | 0.0 | 0.00 | 0.00 | 0.00 | 79 | 1007.1 |
| 20260902064604 | 61 | 225 | 0.0 | 0.0 | 0.00 | 0.00 | 0.00 | 79 | 1006.9 |
| 20260902064106 | 61 | 225 | 0.0 | 0.0 | 0.00 | 0.00 | 0.00 | 80 | 1006.8 |
| 20260902063605 | 62 | 225 | 0.9 | 2.6 | 0.00 | 0.00 | 0.00 | 80 | 1006.8 |
| 20260902063105 | 62 | 141 | 0.0 | 1.7 | 0.00 | 0.00 | 0.00 | 80 | 1006.8 |
| 20260902062606 | 62 | 129 | 0.0 | 0.9 | 0.00 | 0.00 | 0.00 | 80 | 1006.8 |
| 20260902061606 | 62 | 157 | 0.0 | 0.9 | 0.00 | 0.00 | 0.00 | 80 | 1006.8 |
| 20260902061106 | 61 | 157 | 0.9 | 1.7 | 0.00 | 0.00 | 0.00 | 80 | 1006.8 |
| 20260902060605 | 61 | 135 | 0.9 | 2.6 | 0.00 | 0.00 | 0.00 | 80 | 1006.9 |
| 20260902055605 | 61 | 150 | 0.0 | 0.0 | 0.00 | 0.00 | 0.00 | 81 | 1007.1 |
| 20260902055105 | 61 | 135 | 0.0 | 0.0 | 0.00 | 0.00 | 0.00 | 82 | 1007.0 |
| 20260902054606 | 61 | 135 | 0.0 | 0.9 | 0.00 | 0.00 | 0.00 | 82 | 1007.1 |
| 20260902054106 | 61 | 135 | 0.0 | 0.0 | 0.00 | 0.00 | 0.00 | 82 | 1007.1 |
| 20260902053608 | 61 | 135 | 0.9 | 1.7 | 0.00 | 0.00 | 0.00 | 82 | 1007.1 |
| 20260902053106 | 61 | 191 | 0.9 | 1.7 | 0.00 | 0.00 | 0.00 | 82 | 1007.1 |
| 20260902052605 | 61 | 98 | 0.9 | 2.6 | 0.00 | 0.00 | 0.00 | 83 | 1007.1 |
| 20260902051606 | 60 | 157 | 0.9 | 1.7 | 0.00 | 0.00 | 0.00 | 82 | 1007.2 |
| 20260902051106 | 60 | 90 | 0.0 | 0.0 | 0.00 | 0.00 | 0.00 | 82 | 1007.5 |
| 20260902050606 | 60 | 90 | 0.0 | 0.0 | 0.00 | 0.00 | 0.00 | 82 | 1007.5 |
| 20260902050107 | 60 | 157 | 0.0 | 1.7 | 0.00 | 0.00 | 0.00 | 81 | 1007.5 |
| 20260902044606 | 60 | 202 | 0.0 | 0.9 | 0.00 | 0.00 | 0.00 | 80 | 1007.2 |
| 20260902043606 | 61 | 247 | 0.0 | 0.0 | 0.00 | 0.00 | 0.00 | 78 | 1007.5 |
| 20260902043106 | 61 | 247 | 0.0 | 0.0 | 0.00 | 0.00 | 0.00 | 78 | 1007.5 |
| 20260902042605 | 61 | 157 | 0.0 | 0.0 | 0.00 | 0.00 | 0.00 | 78 | 1007.2 |
| 20260902042105 | 62 | 157 | 0.0 | 0.0 | 0.00 | 0.00 | 0.00 | 78 | 1007.5 |
| 20260902040106 | 62 | 202 | 0.0 | 1.7 | 0.00 | 0.00 | 0.00 | 77 | 1007.1 |
| 20260902035605 | 62 | 200 | 0.9 | 2.6 | 0.00 | 0.00 | 0.00 | 77 | 1007.1 |
| 20260902035107 | 62 | 184 | 1.7 | 4.3 | 0.00 | 0.00 | 0.00 | 76 | 1006.8 |
| 20260902034105 | 63 | 153 | 0.9 | 5.2 | 0.00 | 0.00 | 0.00 | 76 | 1006.9 |
| 20260902033607 | 63 | 181 | 0.0 | 2.6 | 0.00 | 0.00 | 0.00 | 76 | 1006.9 |
| 20260902033106 | 63 | 220 | 0.9 | 2.6 | 0.00 | 0.00 | 0.00 | 76 | 1006.8 |
| 20260902032605 | 63 | 181 | 1.7 | 5.2 | 0.00 | 0.00 | 0.00 | 75 | 1006.8 |
| 20260902032106 | 63 | 235 | 0.9 | 5.2 | 0.00 | 0.00 | 0.00 | 75 | 1006.8 |
| 20260902031605 | 63 | 210 | 1.7 | 4.3 | 0.00 | 0.00 | 0.00 | 74 | 1006.5 |
| 20260902031105 | 63 | 157 | 0.9 | 4.3 | 0.00 | 0.00 | 0.00 | 73 | 1006.7 |
| 20260902030605 | 63 | 228 | 1.7 | 6.1 | 0.00 | 0.00 | 0.00 | 72 | 1006.7 |
| 20260902030106 | 63 | 199 | 0.9 | 2.6 | 0.00 | 0.00 | 0.00 | 71 | 1006.4 |
| 20260902025606 | 64 | 224 | 0.9 | 4.3 | 0.00 | 0.00 | 0.00 | 70 | 1006.4 |
| 20260902024606 | 64 | 135 | 0.0 | 6.1 | 0.00 | 0.00 | 0.00 | 68 | 1006.4 |
| 20260902024105 | 65 | 167 | 1.7 | 5.2 | 0.00 | 0.00 | 0.00 | 66 | 1006.4 |
| 20260902023605 | 65 | 344 | 0.9 | 1.7 | 0.00 | 0.00 | 0.00 | 65 | 1006.4 |
| 20260902023105 | 65 | 202 | 0.9 | 1.7 | 0.00 | 0.00 | 0.00 | 65 | 1006.1 |
| 20260902022607 | 66 | 202 | 0.9 | 7.0 | 0.00 | 0.00 | 0.00 | 63 | 1006.2 |
| 20260902022106 | 67 | 286 | 1.7 | 5.2 | 0.00 | 0.00 | 0.00 | 61 | 1006.1 |
| 20260902021605 | 67 | 226 | 2.6 | 5.2 | 0.00 | 0.00 | 0.00 | 58 | 1006.4 |
| 20260902020105 | 69 | 239 | 0.9 | 5.2 | 0.00 | 0.00 | 0.00 | 53 | 1006.1 |
| 20260902015606 | 69 | 209 | 1.7 | 6.1 | 0.00 | 0.00 | 0.00 | 53 | 1006.1 |
| 20260902015105 | 70 | 234 | 4.3 | 7.0 | 0.00 | 0.00 | 0.00 | 52 | 1006.1 |
| 20260902014607 | 70 | 227 | 1.7 | 4.3 | 0.00 | 0.00 | 0.00 | 52 | 1006.0 |
| 20260902013606 | 71 | 142 | 0.9 | 7.0 | 0.00 | 0.00 | 0.00 | 52 | 1005.8 |
| 20260902013106 | 71 | 153 | 0.9 | 6.1 | 0.00 | 0.00 | 0.00 | 52 | 1005.8 |
| 20260902012105 | 70 | 331 | 1.7 | 6.1 | 0.00 | 0.00 | 0.00 | 52 | 1005.8 |
| 20260902011606 | 70 | 233 | 3.5 | 7.0 | 0.00 | 0.00 | 0.00 | 52 | 1005.8 |
| 20260902011107 | 71 | 262 | 2.6 | 5.2 | 0.00 | 0.00 | 0.00 | 52 | 1005.8 |
| 20260902010607 | 70 | 237 | 1.7 | 6.1 | 0.00 | 0.00 | 0.00 | 53 | 1005.8 |
| 20260902010106 | 70 | 232 | 3.5 | 7.0 | 0.00 | 0.00 | 0.00 | 53 | 1005.8 |
| 20260902005606 | 70 | 220 | 5.2 | 10.4 | 0.00 | 0.00 | 0.00 | 52 | 1005.8 |
| 20260902004605 | 72 | 249 | 4.3 | 7.8 | 0.00 | 0.00 | 0.00 | 50 | 1005.4 |
| 20260902004105 | 73 | 246 | 2.6 | 5.2 | 0.00 | 0.00 | 0.00 | 50 | 1005.4 |
| 20260902003605 | 73 | 168 | 1.7 | 5.2 | 0.00 | 0.00 | 0.00 | 50 | 1005.5 |
| 20260902003105 | 72 | 216 | 2.6 | 6.1 | 0.00 | 0.00 | 0.00 | 49 | 1005.8 |
| 20260902002105 | 73 | 237 | 1.7 | 4.3 | 0.00 | 0.00 | 0.00 | 48 | 1005.8 |
| 20260902001606 | 73 | 249 | 1.7 | 6.1 | 0.00 | 0.00 | 0.00 | 48 | 1005.4 |
| 20260902001105 | 73 | 193 | 1.7 | 5.2 | 0.00 | 0.00 | 0.00 | 47 | 1005.8 |
| 20260902000605 | 73 | 251 | 2.6 | 6.1 | 0.00 | 0.00 | 0.00 | 48 | 1005.8 |
| 20260902000106 | 72 | 217 | 1.7 | 5.2 | 0.00 | 0.00 | 0.00 | 49 | 1005.7 |
| 20260901235605 | 71 | 156 | 1.7 | 6.1 | 0.00 | 0.00 | 0.00 | 49 | 1005.8 |
| 20260901235106 | 71 | 226 | 2.6 | 7.8 | 0.00 | 0.00 | 0.00 | 48 | 1005.7 |
| 20260901234605 | 72 | 228 | 4.3 | 10.4 | 0.00 | 0.00 | 0.00 | 48 | 1005.5 |
| 20260901234106 | 73 | 232 | 3.5 | 7.8 | 0.00 | 0.00 | 0.00 | 47 | 1005.8 |
| 20260901233605 | 73 | 245 | 4.3 | 8.7 | 0.00 | 0.00 | 0.00 | 47 | 1005.5 |
| 20260901233106 | 73 | 251 | 1.7 | 7.0 | 0.00 | 0.00 | 0.00 | 47 | 1005.5 |
| 20260901232105 | 73 | 236 | 5.2 | 8.7 | 0.00 | 0.00 | 0.00 | 46 | 1005.7 |
| 20260901231605 | 73 | 230 | 2.6 | 7.0 | 0.00 | 0.00 | 0.00 | 46 | 1005.8 |
| 20260901231105 | 73 | 245 | 3.5 | 7.0 | 0.00 | 0.00 | 0.00 | 46 | 1005.8 |
| 20260901230605 | 73 | 230 | 3.5 | 8.7 | 0.00 | 0.00 | 0.00 | 45 | 1005.8 |
| 20260901225605 | 74 | 233 | 2.6 | 8.7 | 0.00 | 0.00 | 0.00 | 45 | 1006.0 |
| 20260901225106 | 74 | 257 | 3.5 | 6.1 | 0.00 | 0.00 | 0.00 | 45 | 1005.8 |
| 20260901224605 | 74 | 262 | 4.3 | 7.8 | 0.00 | 0.00 | 0.00 | 44 | 1005.8 |
| 20260901224105 | 74 | 278 | 2.6 | 7.0 | 0.00 | 0.00 | 0.00 | 44 | 1005.8 |
| 20260901223604 | 74 | 221 | 3.5 | 8.7 | 0.00 | 0.00 | 0.00 | 43 | 1005.8 |
| 20260901223105 | 74 | 214 | 2.6 | 7.0 | 0.00 | 0.00 | 0.00 | 43 | 1005.8 |
| 20260901222605 | 75 | 233 | 2.6 | 7.0 | 0.00 | 0.00 | 0.00 | 43 | 1006.1 |
| 20260901222106 | 76 | 248 | 4.3 | 10.4 | 0.00 | 0.00 | 0.00 | 42 | 1005.8 |
| 20260901221105 | 76 | 165 | 1.7 | 7.0 | 0.00 | 0.00 | 0.00 | 42 | 1005.8 |
| 20260901220605 | 76 | 191 | 1.7 | 6.1 | 0.00 | 0.00 | 0.00 | 43 | 1005.8 |
| 20260901220105 | 76 | 140 | 2.6 | 7.0 | 0.00 | 0.00 | 0.00 | 43 | 1006.1 |
| 20260901215606 | 76 | 186 | 2.6 | 8.7 | 0.00 | 0.00 | 0.00 | 43 | 1006.1 |
| 20260901214605 | 75 | 157 | 2.6 | 7.0 | 0.00 | 0.00 | 0.00 | 43 | 1006.1 |
| 20260901214105 | 75 | 225 | 1.7 | 6.1 | 0.00 | 0.00 | 0.00 | 44 | 1006.1 |
| 20260901213105 | 75 | 148 | 2.6 | 8.7 | 0.00 | 0.00 | 0.00 | 45 | 1006.1 |
| 20260901212605 | 74 | 176 | 1.7 | 5.2 | 0.00 | 0.00 | 0.00 | 46 | 1006.1 |
| 20260901212105 | 73 | 207 | 1.7 | 7.0 | 0.00 | 0.00 | 0.00 | 48 | 1006.1 |
| 20260901211604 | 73 | 208 | 3.5 | 7.0 | 0.00 | 0.00 | 0.00 | 48 | 1006.1 |
| 20260901210605 | 74 | 261 | 1.7 | 6.1 | 0.00 | 0.00 | 0.00 | 46 | 1006.0 |
| 20260901205105 | 72 | 228 | 2.6 | 7.8 | 0.00 | 0.00 | 0.00 | 49 | 1006.1 |
| 20260901204105 | 72 | 249 | 2.6 | 7.0 | 0.00 | 0.00 | 0.00 | 48 | 1006.1 |
| 20260901203606 | 72 | 243 | 3.5 | 7.0 | 0.00 | 0.00 | 0.00 | 47 | 1006.1 |
| 20260901203105 | 73 | 286 | 1.7 | 6.1 | 0.00 | 0.00 | 0.00 | 46 | 1006.1 |
| 20260901202104 | 73 | 131 | 1.7 | 7.0 | 0.00 | 0.00 | 0.00 | 46 | 1006.1 |
| 20260901201604 | 73 | 234 | 2.6 | 7.0 | 0.00 | 0.00 | 0.00 | 46 | 1006.1 |
| 20260901201104 | 73 | 220 | 1.7 | 7.0 | 0.00 | 0.00 | 0.00 | 47 | 1006.4 |
| 20260901200605 | 73 | 221 | 1.7 | 7.0 | 0.00 | 0.00 | 0.00 | 47 | 1006.1 |
| 20260901195605 | 73 | 160 | 2.6 | 7.0 | 0.00 | 0.00 | 0.00 | 47 | 1006.4 |
| 20260901195105 | 72 | 161 | 1.7 | 5.2 | 0.00 | 0.00 | 0.00 | 47 | 1006.4 |
| 20260901194605 | 73 | 229 | 1.7 | 5.2 | 0.00 | 0.00 | 0.00 | 47 | 1006.4 |
| 20260901194104 | 73 | 224 | 1.7 | 7.0 | 0.00 | 0.00 | 0.00 | 48 | 1006.4 |
| 20260901193606 | 72 | 166 | 1.7 | 4.3 | 0.00 | 0.00 | 0.00 | 49 | 1006.4 |
| 20260901193105 | 72 | 134 | 2.6 | 6.1 | 0.00 | 0.00 | 0.00 | 50 | 1006.5 |
| 20260901192606 | 71 | 178 | 1.7 | 4.3 | 0.00 | 0.00 | 0.00 | 51 | 1006.8 |
| 20260901191105 | 69 | 214 | 2.6 | 5.2 | 0.00 | 0.00 | 0.00 | 52 | 1006.8 |
| 20260901190605 | 69 | 235 | 2.6 | 5.2 | 0.00 | 0.00 | 0.00 | 53 | 1006.8 |
| 20260901190105 | 69 | 235 | 1.7 | 4.3 | 0.00 | 0.00 | 0.00 | 53 | 1006.8 |
| 20260901185605 | 69 | 255 | 2.6 | 5.2 | 0.00 | 0.00 | 0.00 | 53 | 1006.8 |
| 20260901185105 | 69 | 231 | 1.7 | 4.3 | 0.00 | 0.00 | 0.00 | 54 | 1006.8 |
| 20260901184605 | 69 | 235 | 1.7 | 4.3 | 0.00 | 0.00 | 0.00 | 54 | 1006.8 |
| 20260901183604 | 68 | 233 | 2.6 | 6.1 | 0.00 | 0.00 | 0.00 | 56 | 1007.1 |
| 20260901183106 | 68 | 281 | 0.9 | 5.2 | 0.00 | 0.00 | 0.00 | 59 | 1006.8 |
| 20260901182604 | 68 | 229 | 4.3 | 8.7 | 0.00 | 0.00 | 0.00 | 61 | 1007.1 |
| 20260901182105 | 67 | 272 | 2.6 | 4.3 | 0.00 | 0.00 | 0.00 | 61 | 1006.8 |
| 20260901181604 | 67 | 260 | 2.6 | 6.1 | 0.00 | 0.00 | 0.00 | 61 | 1006.8 |
| 20260901181104 | 67 | 241 | 3.5 | 7.0 | 0.00 | 0.00 | 0.00 | 62 | 1006.8 |
| 20260901180604 | 67 | 259 | 3.5 | 7.8 | 0.00 | 0.00 | 0.00 | 63 | 1006.8 |
| 20260901180105 | 67 | 227 | 4.3 | 10.4 | 0.00 | 0.00 | 0.00 | 64 | 1006.8 |
| 20260901175605 | 66 | 243 | 4.3 | 8.7 | 0.00 | 0.00 | 0.00 | 64 | 1006.8 |
| 20260901175104 | 66 | 267 | 2.6 | 8.7 | 0.00 | 0.00 | 0.00 | 65 | 1006.8 |
| 20260901174604 | 67 | 240 | 4.3 | 10.4 | 0.00 | 0.00 | 0.00 | 67 | 1006.8 |
| 20260901174104 | 66 | 273 | 2.6 | 7.8 | 0.00 | 0.00 | 0.00 | 68 | 1006.8 |
| 20260901173607 | 66 | 271 | 2.6 | 7.0 | 0.00 | 0.00 | 0.00 | 68 | 1006.8 |
| 20260901173105 | 65 | 288 | 2.6 | 5.2 | 0.00 | 0.00 | 0.00 | 68 | 1006.8 |
| 20260901171605 | 67 | 261 | 3.5 | 7.8 | 0.00 | 0.00 | 0.00 | 62 | 1006.5 |
| 20260901171105 | 68 | 268 | 2.6 | 5.2 | 0.00 | 0.00 | 0.00 | 59 | 1006.7 |
| 20260901170605 | 69 | 261 | 1.7 | 5.2 | 0.00 | 0.00 | 0.00 | 59 | 1006.4 |
| 20260901170104 | 69 | 182 | 0.9 | 6.1 | 0.00 | 0.00 | 0.00 | 59 | 1006.4 |
| 20260901165605 | 69 | 177 | 2.6 | 6.1 | 0.00 | 0.00 | 0.00 | 59 | 1006.1 |
| 20260901165106 | 69 | 217 | 1.7 | 7.8 | 0.00 | 0.00 | 0.00 | 59 | 1006.1 |
| 20260901164104 | 69 | 186 | 1.7 | 6.1 | 0.00 | 0.00 | 0.00 | 59 | 1006.1 |
| 20260901163105 | 69 | 190 | 1.7 | 7.0 | 0.00 | 0.00 | 0.00 | 61 | 1006.1 |
| 20260901162604 | 68 | 185 | 1.7 | 4.3 | 0.00 | 0.00 | 0.00 | 61 | 1006.4 |
| 20260901162105 | 68 | 192 | 1.7 | 6.1 | 0.00 | 0.00 | 0.00 | 63 | 1006.4 |
| 20260901161604 | 67 | 191 | 1.7 | 5.2 | 0.00 | 0.00 | 0.00 | 65 | 1006.1 |
| 20260901160605 | 67 | 249 | 1.7 | 7.0 | 0.00 | 0.00 | 0.00 | 66 | 1006.1 |
| 20260901160106 | 67 | 126 | 1.7 | 4.3 | 0.00 | 0.00 | 0.00 | 67 | 1006.1 |
| 20260901155605 | 67 | 151 | 0.9 | 5.2 | 0.00 | 0.00 | 0.00 | 67 | 1006.1 |
| 20260901155105 | 66 | 197 | 1.7 | 5.2 | 0.00 | 0.00 | 0.00 | 68 | 1006.1 |
| 20260901154605 | 65 | 288 | 1.7 | 4.3 | 0.00 | 0.00 | 0.00 | 69 | 1005.8 |
| 20260901154104 | 65 | 222 | 0.9 | 6.1 | 0.00 | 0.00 | 0.00 | 69 | 1006.1 |
| 20260901153607 | 65 | 230 | 1.7 | 7.0 | 0.00 | 0.00 | 0.00 | 70 | 1006.0 |
| 20260901153104 | 65 | 268 | 1.7 | 5.2 | 0.00 | 0.00 | 0.00 | 71 | 1005.8 |
| 20260901152604 | 64 | 201 | 1.7 | 4.3 | 0.00 | 0.00 | 0.00 | 71 | 1005.8 |
| 20260901152104 | 64 | 169 | 0.9 | 6.1 | 0.00 | 0.00 | 0.00 | 72 | 1005.8 |
| 20260901150605 | 63 | 116 | 1.7 | 5.2 | 0.00 | 0.00 | 0.00 | 74 | 1005.4 |
| 20260901150104 | 63 | 90 | 0.0 | 2.6 | 0.00 | 0.00 | 0.00 | 74 | 1005.8 |
| 20260901145604 | 63 | 131 | 0.9 | 6.1 | 0.00 | 0.00 | 0.00 | 74 | 1005.4 |
| 20260901145104 | 63 | 210 | 0.9 | 6.1 | 0.00 | 0.00 | 0.00 | 75 | 1005.4 |
| 20260901143606 | 62 | 224 | 0.0 | 2.6 | 0.00 | 0.00 | 0.00 | 75 | 1005.4 |
| 20260901143105 | 62 | 116 | 0.9 | 5.2 | 0.00 | 0.00 | 0.00 | 76 | 1005.4 |
| 20260901142604 | 62 | 157 | 0.9 | 4.3 | 0.00 | 0.00 | 0.00 | 76 | 1005.1 |
| 20260901142104 | 62 | 136 | 0.9 | 1.7 | 0.00 | 0.00 | 0.00 | 76 | 1005.1 |
| 20260901141604 | 62 | 157 | 0.0 | 1.7 | 0.00 | 0.00 | 0.00 | 76 | 1005.1 |
| 20260901141104 | 62 | 180 | 0.9 | 2.6 | 0.00 | 0.00 | 0.00 | 76 | 1004.7 |
| 20260901140605 | 62 | 155 | 0.0 | 2.6 | 0.00 | 0.00 | 0.00 | 76 | 1005.1 |
| 20260901140104 | 61 | 157 | 0.9 | 4.3 | 0.00 | 0.00 | 0.00 | 76 | 1005.0 |
| 20260901135604 | 61 | 155 | 0.9 | 2.6 | 0.00 | 0.00 | 0.00 | 75 | 1004.7 |
| 20260901134605 | 62 | 114 | 0.0 | 2.6 | 0.00 | 0.00 | 0.00 | 75 | 1004.7 |
| 20260901134105 | 62 | 135 | 0.9 | 4.3 | 0.00 | 0.00 | 0.00 | 75 | 1004.7 |
| 20260901133604 | 62 | 154 | 0.9 | 4.3 | 0.00 | 0.00 | 0.00 | 75 | 1004.7 |
| 20260901133104 | 62 | 79 | 0.9 | 2.6 | 0.00 | 0.00 | 0.00 | 75 | 1004.7 |
| 20260901132104 | 62 | 163 | 0.9 | 4.3 | 0.00 | 0.00 | 0.00 | 75 | 1004.7 |
| 20260901131604 | 62 | 96 | 0.0 | 2.6 | 0.00 | 0.00 | 0.00 | 75 | 1004.4 |
| 20260901131106 | 62 | 180 | 0.0 | 2.6 | 0.00 | 0.00 | 0.00 | 76 | 1004.4 |
| 20260901130604 | 61 | 117 | 0.9 | 2.6 | 0.00 | 0.00 | 0.00 | 76 | 1004.4 |
| 20260901130104 | 61 | 137 | 0.9 | 5.2 | 0.00 | 0.00 | 0.00 | 77 | 1004.4 |
| 20260901125605 | 61 | 127 | 0.9 | 4.3 | 0.00 | 0.00 | 0.00 | 78 | 1004.4 |
| 20260901125104 | 61 | 155 | 0.9 | 2.6 | 0.00 | 0.00 | 0.00 | 78 | 1004.4 |